Change the Weather History Date:

Thursday, April 18, 2013

  Actual Average Record
Temperature  
Mean Temperature 34 °F -  
Max Temperature 39 °F 52 °F 84 °F (2005)
Min Temperature 28 °F 29 °F 15 °F (1981)
Degree Days  
Heating Degree Days 32    
Moisture  
Dew Point 26 °F    
Average Humidity 70    
Maximum Humidity 87    
Minimum Humidity 49    
Precipitation  
Precipitation 0.00 in - - ()
Sea Level Pressure  
Sea Level Pressure 29.95 in    
Wind  
Wind Speed 10 mph (NNE)    
Max Wind Speed 21 mph    
Max Gust Speed 26 mph    
Visibility 9 miles    
Events Rain , Snow    
Averages and records for this station are not official NWS values.
T = Trace of Precipitation, MM = Missing Value Source: NWS Daily Summary

Daily Weather History Graph

Daily Weather History Graph

Search for Another Location

Airport or City:

Trip Planner

Search our weather history database for the weather conditions in past years. The results will help you decide how hot, cold, wet, or windy it might be!

Date:

Astronomy

Apr. 18, 2013 Rise Set
Actual Time 6:25 AM CDT 8:19 PM CDT
Civil Twilight 5:51 AM CDT 8:53 PM CDT
Nautical Twilight 5:10 AM CDT 9:35 PM CDT
Astronomical Twilight 4:24 AM CDT 10:21 PM CDT
Moon 12:32 PM CDT (4/18) 2:41 AM CDT (4/18)
Length of Visible Light 15h 01m
Length of Day
13h 54m
First Quarter, 52% of the Moon is Illuminated
Apr 18
First Quarter
Apr 25
Full
May 2
Last Quarter
May 9
New
May 17
First Quarter

Hourly Weather History & Observations

Time (CDT) Temp. Windchill Dew Point Humidity Pressure Visibility Wind Dir Wind Speed Gust Speed Precip Events Conditions
12:14 AM 33.8 °F 27.7 °F 28.4 °F 81% 30.12 in 10.0 mi North 6.9 mph - N/A   Overcast
12:34 AM 33.8 °F 28.6 °F 28.4 °F 81% 30.11 in 10.0 mi North 5.8 mph - N/A   Overcast
12:55 AM 33.8 °F 28.6 °F 28.4 °F 81% 30.10 in 10.0 mi North 5.8 mph - N/A   Overcast
1:14 AM 33.8 °F 28.6 °F 28.4 °F 81% 30.10 in 10.0 mi North 5.8 mph - N/A   Overcast
1:34 AM 33.8 °F 29.6 °F 28.4 °F 81% 30.10 in 10.0 mi North 4.6 mph - N/A   Overcast
1:55 AM 33.8 °F 28.6 °F 28.4 °F 81% 30.09 in 10.0 mi North 5.8 mph - N/A   Overcast
2:14 AM 33.8 °F 28.6 °F 28.4 °F 81% 30.08 in 7.0 mi North 5.8 mph - N/A Snow Light Snow
2:34 AM 33.8 °F 28.6 °F 28.4 °F 81% 30.07 in 5.0 mi North 5.8 mph - N/A Rain Light Rain
2:54 AM 33.8 °F 27.7 °F 28.4 °F 81% 30.05 in 7.0 mi North 6.9 mph - N/A Rain Light Rain
3:15 AM 33.8 °F 28.6 °F 28.4 °F 81% 30.05 in 7.0 mi North 5.8 mph - N/A Rain Light Rain
3:34 AM 33.8 °F 30.8 °F 28.4 °F 81% 30.04 in 7.0 mi North 3.5 mph - N/A Rain Light Rain
3:54 AM 33.8 °F 29.6 °F 28.4 °F 81% 30.03 in 10.0 mi North 4.6 mph - N/A   Mostly Cloudy
4:14 AM 33.8 °F 27.0 °F 28.4 °F 81% 30.03 in 10.0 mi North 8.1 mph - N/A   Overcast
4:34 AM 33.8 °F 25.8 °F 28.4 °F 81% 30.01 in 10.0 mi NNE 10.4 mph - N/A   Overcast
4:55 AM 33.8 °F 27.0 °F 28.4 °F 81% 30.02 in 10.0 mi NNE 8.1 mph - N/A   Overcast
5:14 AM 32.0 °F 25.6 °F 28.4 °F 87% 30.03 in 10.0 mi NNE 6.9 mph - N/A   Overcast
5:34 AM 33.8 °F 27.0 °F 28.4 °F 81% 30.03 in 7.0 mi North 8.1 mph - N/A   Overcast
5:55 AM 33.8 °F 27.0 °F 28.4 °F 81% 30.04 in 10.0 mi North 8.1 mph - N/A   Overcast
6:14 AM 32.0 °F 25.6 °F 28.4 °F 87% 30.03 in 7.0 mi NNE 6.9 mph - N/A   Overcast
6:34 AM 32.0 °F 27.5 °F 28.4 °F 87% 30.03 in 3.0 mi NNE 4.6 mph - N/A   Overcast
6:55 AM 32.0 °F 26.4 °F 28.4 °F 87% 30.03 in 1.2 mi North 5.8 mph - N/A Snow Light Snow
7:14 AM 33.8 °F 24.8 °F 28.4 °F 81% 30.03 in 1.2 mi NNE 12.7 mph - N/A Snow Light Snow
7:34 AM 33.8 °F 25.3 °F 28.4 °F 81% 30.03 in 4.0 mi North 11.5 mph - N/A   Haze
7:55 AM 33.8 °F 24.3 °F 28.4 °F 81% 30.01 in 10.0 mi North 13.8 mph - N/A   Scattered Clouds
8:14 AM 33.8 °F 24.8 °F 28.4 °F 81% 30.01 in 10.0 mi North 12.7 mph - N/A   Scattered Clouds
8:34 AM 33.8 °F 23.5 °F 28.4 °F 81% 30.00 in 10.0 mi North 16.1 mph - N/A   Scattered Clouds
8:54 AM 33.8 °F 23.5 °F 28.4 °F 81% 30.00 in 10.0 mi NNE 16.1 mph 20.7 mph N/A   Scattered Clouds
9:14 AM 33.8 °F 23.9 °F 26.6 °F 75% 30.00 in 10.0 mi NNE 15.0 mph - N/A   Scattered Clouds
9:34 AM 33.8 °F 23.5 °F 26.6 °F 75% 29.99 in 10.0 mi NNE 16.1 mph - N/A   Scattered Clouds
9:54 AM 33.8 °F 24.3 °F 26.6 °F 75% 29.99 in 10.0 mi North 13.8 mph - N/A   Clear
10:14 AM 33.8 °F 24.3 °F 26.6 °F 75% 29.98 in 10.0 mi NNE 13.8 mph - N/A   Clear
10:34 AM 35.6 °F 26.6 °F 28.4 °F 75% 29.97 in 10.0 mi North 13.8 mph - N/A   Clear
10:54 AM 35.6 °F 25.9 °F 26.6 °F 70% 29.97 in 10.0 mi North 16.1 mph - N/A   Scattered Clouds
11:15 AM 35.6 °F 27.1 °F 26.6 °F 70% 29.96 in 10.0 mi NNE 12.7 mph 16.1 mph N/A   Scattered Clouds
11:34 AM 35.6 °F 27.1 °F 26.6 °F 70% 29.96 in 10.0 mi NNE 12.7 mph 20.7 mph N/A   Scattered Clouds
11:54 AM 37.4 °F 29.3 °F 24.8 °F 60% 29.94 in 10.0 mi NNE 12.7 mph - N/A   Clear
12:15 PM 37.4 °F 28.2 °F 23.0 °F 56% 29.93 in 10.0 mi North 16.1 mph 26.5 mph N/A   Clear
12:34 PM 37.4 °F 28.2 °F 24.8 °F 60% 29.92 in 10.0 mi North 16.1 mph - N/A   Clear
12:54 PM 37.4 °F 27.2 °F 23.0 °F 56% 29.91 in 10.0 mi NNE 19.6 mph 24.2 mph N/A   Clear
1:15 PM 37.4 °F 28.9 °F 24.8 °F 60% 29.89 in 10.0 mi North 13.8 mph - N/A   Clear
1:34 PM 39.2 °F 31.2 °F 24.8 °F 56% 29.89 in 10.0 mi NNE 13.8 mph 24.2 mph N/A   Clear
1:54 PM 37.4 °F 28.9 °F 24.8 °F 60% 29.89 in 10.0 mi North 13.8 mph 17.3 mph N/A   Clear
2:14 PM 39.2 °F 30.2 °F 24.8 °F 56% 29.90 in 10.0 mi NNE 17.3 mph - N/A   Clear
2:34 PM 39.2 °F 30.8 °F 24.8 °F 56% 29.89 in 10.0 mi North 15.0 mph - N/A   Clear
2:54 PM 39.2 °F 29.8 °F 24.8 °F 56% 29.88 in 10.0 mi NNE 18.4 mph 23.0 mph N/A   Clear
3:34 PM 39.2 °F 30.8 °F 24.8 °F 56% 29.88 in 10.0 mi North 15.0 mph - N/A   Scattered Clouds
3:54 PM 39.2 °F 31.2 °F 23.0 °F 52% 29.87 in 10.0 mi North 13.8 mph - N/A   Scattered Clouds
4:14 PM 39.2 °F 29.8 °F 23.0 °F 52% 29.86 in 10.0 mi NNE 18.4 mph - N/A   Scattered Clouds
4:34 PM 39.2 °F 29.8 °F 23.0 °F 52% 29.85 in 10.0 mi North 18.4 mph 23.0 mph N/A   Scattered Clouds
4:54 PM 39.2 °F 30.2 °F 21.2 °F 49% 29.84 in 10.0 mi North 17.3 mph - N/A   Clear
5:14 PM 39.2 °F 30.2 °F 24.8 °F 56% 29.85 in 10.0 mi North 17.3 mph - N/A   Clear
5:34 PM 39.2 °F 30.5 °F 24.8 °F 56% 29.85 in 10.0 mi North 16.1 mph - N/A   Scattered Clouds
5:54 PM 39.2 °F 29.6 °F 23.0 °F 52% 29.84 in 10.0 mi NNE 19.6 mph 24.2 mph N/A   Scattered Clouds
6:14 PM 39.2 °F 29.3 °F 23.0 °F 52% 29.83 in 10.0 mi NNE 20.7 mph 24.2 mph N/A   Scattered Clouds
6:34 PM 39.2 °F 30.2 °F 23.0 °F 52% 29.84 in 10.0 mi NNE 17.3 mph - N/A   Clear
6:54 PM 39.2 °F 31.6 °F 23.0 °F 52% 29.85 in 10.0 mi NE 12.7 mph 18.4 mph N/A   Clear
7:14 PM 37.4 °F 28.2 °F 24.8 °F 60% 29.86 in 10.0 mi NE 16.1 mph - N/A   Clear
7:34 PM 37.4 °F 28.5 °F 24.8 °F 60% 29.86 in 10.0 mi NE 15.0 mph - N/A   Clear
7:54 PM 37.4 °F 28.5 °F 24.8 °F 60% 29.86 in 10.0 mi NE 15.0 mph - N/A   Clear
8:14 PM 35.6 °F 26.2 °F 24.8 °F 65% 29.86 in 10.0 mi NE 15.0 mph - N/A   Clear
8:34 PM 35.6 °F 28.0 °F 24.8 °F 65% 29.86 in 10.0 mi NE 10.4 mph - N/A   Clear
8:54 PM 35.6 °F 28.0 °F 24.8 °F 65% 29.86 in 10.0 mi NE 10.4 mph - N/A   Clear
9:14 PM 33.8 °F 26.4 °F 24.8 °F 70% 29.86 in 10.0 mi NNE 9.2 mph - N/A   Clear
9:34 PM 33.8 °F 26.4 °F 24.8 °F 70% 29.86 in 10.0 mi NNE 9.2 mph - N/A   Clear
9:54 PM 30.2 °F 23.4 °F 23.0 °F 75% 29.86 in 10.0 mi North 6.9 mph - N/A   Clear
10:34 PM 30.2 °F 24.3 °F 23.0 °F 75% 29.85 in 10.0 mi North 5.8 mph - N/A   Clear
10:54 PM 30.2 °F 23.4 °F 21.2 °F 69% 29.85 in 10.0 mi North 6.9 mph - N/A   Clear
11:14 PM 30.2 °F 23.4 °F 21.2 °F 69% 29.84 in 10.0 mi NNW 6.9 mph - N/A   Clear
11:34 PM 28.4 °F 21.2 °F 21.2 °F 74% 29.84 in 10.0 mi North 6.9 mph - N/A   Clear
11:54 PM 30.2 °F 23.4 °F 21.2 °F 69% 29.84 in 10.0 mi North 6.9 mph - N/A   Clear